Flag for U.S.A. Weather past 2 weeks in Lincoln, Nebraska, U.S.A.

Now
60 °F

Fog.


Feels Like: 60 °F
Forecast: 56 / 80 °F
Wind: 6 mph from South

Location: Lincoln Municipal Airport

Current Time: Oct 24, 2014 at 9:48:49 AM

Latest Report: Oct 24, 2014 at 8:54 AM


Visibility: 3 mi

Pressure: 29.94 "Hg

Humidity: 90%

Dew point: 57 °F

Location of LincolnLocation

Historic Weather in Lincoln — Graph

°F

Lincoln temperature yesterday

Maximum temperature yesterday: 72 °F (at 3:54 PM)
Minimum temperature yesterday: 52 °F (at 6:54 AM)
Average temperature yesterday: 61 °F

Past Weeks' High & Low Weather Summary

 TemperatureHumidityPressure
High80 °F (Oct 22, 3:54 PM)100% (Oct 23, 6:54 AM)31.00 "Hg (Oct 23, 6:54 AM)
Low30 °F (Oct 11, 7:54 AM)23% (Oct 16, 3:57 PM)29.67 "Hg (Oct 12, 3:54 PM)
Average55 °F65%30.02 "Hg
* Reported Oct 9 8:54 AM — Oct 24 8:54 AM, Lincoln, Weather by CustomWeather, © 2014

Note: Actual official high and low records may vary slightly from our data, if they occured in-between our weather recording intervals... More about our weather records

Advertising

Lincoln weather history for previous 24 hours

 ConditionsComfort  
Time TempWeatherWind HumidityBarometerVisibility
8:54 AM
Oct 24
60 °FFog.6 mph90%29.94 "Hg3 mi
7:54 AM59 °FFog.7 mph93%29.93 "Hg5 mi
6:54 AM60 °FFog.12 mph90%29.94 "Hg5 mi
5:54 AM60 °FFog.8 mph90%29.94 "Hg5 mi
4:54 AM61 °FFog.12 mph90%29.95 "Hg6 mi
3:54 AM62 °FClear.12 mph83%29.96 "Hg7 mi
2:54 AM60 °FClear.9 mph86%29.97 "Hg7 mi
1:54 AM54 °FClear.6 mph90%29.98 "Hg9 mi
12:54 AM53 °FClear.7 mph86%30.00 "Hg10 mi
11:54 PM
Oct 23
55 °FClear.5 mph83%30.01 "Hg10 mi
10:54 PM56 °FClear.3 mph81%30.01 "Hg10 mi
9:54 PM60 °FClear.3 mph69%30.02 "Hg10 mi
8:54 PM58 °FClear.6 mph81%30.02 "Hg10 mi
7:54 PM58 °FClear.3 mph78%30.02 "Hg10 mi
6:54 PM64 °FSunny.No wind61%30.01 "Hg10 mi
5:54 PM69 °FSunny.3 mph51%30.00 "Hg10 mi
4:54 PM72 °FSunny.5 mph48%29.99 "Hg10 mi
3:54 PM72 °FSunny.6 mph46%30.00 "Hg10 mi
2:54 PM70 °FSunny.No wind51%30.02 "Hg10 mi
1:54 PM67 °FSunny.6 mph68%30.04 "Hg10 mi
12:54 PM64 °FPartly sunny.8 mph78%30.07 "Hg10 mi
11:54 AM57 °FFog.7 mph93%30.09 "Hg2 mi
10:54 AM56 °FFog.3 mph93%30.09 "Hg0 mi
9:54 AM55 °FFog.No wind96%30.08 "Hg1 mi
Weather by CustomWeather, © 2014

See weather overviewHow to use our weather pages